AB2TC-1 Weather Reports


time (UTC)temp
C
wind
direction
speed
KPH
gust
KPH
rain 1hr
cm
rain 24hr
cm
rain mn
cm
humidity
%
barometer
mb
20260507010503 6 232 0.0 0.0 0.00 1.80 1.27 91 1011.2
20260507010000 6 232 0.0 0.0 0.00 1.88 1.27 91 1011.1
20260507005000 6 232 0.0 0.0 0.00 1.88 1.27 91 1011.1
20260507004500 6 232 0.0 0.0 0.00 1.88 1.27 91 1011.1
20260507004000 6 232 0.0 0.0 0.00 1.88 1.27 91 1011.1
20260507003001 6 233 0.0 3.2 0.00 1.88 1.27 91 1010.9
20260507002500 6 239 0.0 0.0 0.00 1.88 1.27 91 1010.8
20260507002000 6 239 0.0 0.0 0.00 1.88 1.27 91 1010.8
20260507001501 6 239 0.0 0.0 0.00 1.88 1.27 91 1010.9
20260507000500 6 239 0.0 0.0 0.00 1.88 1.27 91 1010.6
20260507000000 6 239 0.0 0.0 0.00 1.88 1.27 91 1010.6
20260506235500 6 238 0.0 0.0 0.00 1.88 1.27 90 1010.4
20260506235000 6 241 0.0 0.0 0.00 1.88 1.27 90 1010.4
20260506234500 6 242 0.0 0.0 0.00 1.88 1.27 90 1010.5
20260506233500 6 241 0.0 0.0 0.00 1.88 1.27 90 1010.2
20260506233000 6 241 0.0 3.2 0.00 1.88 1.27 90 1010.3
20260506232500 6 242 0.0 3.2 0.00 1.88 1.27 89 1010.2
20260506232000 6 226 0.0 1.6 0.00 1.88 1.27 89 1010.2
20260506231500 6 240 0.0 0.0 0.00 1.88 1.27 89 1009.9
20260506230500 6 240 0.0 0.0 0.00 1.88 1.27 90 1009.6
20260506230001 6 240 0.0 0.0 0.00 1.88 1.27 89 1009.6
20260506225500 6 240 0.0 0.0 0.00 1.88 1.27 90 1009.7
20260506225000 6 240 0.0 0.0 0.00 1.88 1.27 89 1009.6
20260506224501 6 240 0.0 1.6 0.00 1.88 1.27 89 1009.7
20260506223959 6 226 0.0 0.0 0.00 1.88 1.27 89 1009.9
20260506223501 6 226 0.0 0.0 0.00 1.88 1.27 89 1009.9
20260506223000 6 226 0.0 0.0 0.00 1.88 1.27 90 1009.9
20260506222500 6 226 0.0 1.6 0.00 1.88 1.27 89 1009.9
20260506221500 6 259 0.0 4.8 0.00 1.88 1.27 89 1010.1
20260506221001 6 252 1.6 4.8 0.00 1.88 1.27 89 1010.2
20260506220501 6 251 1.6 4.8 0.00 1.88 1.27 89 1010.1
20260506220005 6 262 0.0 3.2 0.00 1.88 1.27 89 1010.1
20260506215501 6 234 1.6 6.4 0.00 1.88 1.27 89 1010.0
20260506215001 6 232 1.6 6.4 0.00 1.88 1.27 88 1010.0
20260506214000 6 254 1.6 6.4 0.00 1.88 1.27 90 1009.8
20260506213500 6 263 1.6 4.8 0.00 1.88 1.27 89 1009.7
20260506212500 6 304 1.6 6.4 0.00 1.88 1.27 90 1009.7
20260506212002 6 276 1.6 6.4 0.00 1.88 1.27 90 1009.7
20260506211502 6 286 1.6 8.0 0.00 1.88 1.27 90 1009.7
20260506211001 6 232 1.6 8.0 0.00 1.88 1.27 90 1009.6
20260506210501 6 276 0.0 3.2 0.00 1.88 1.27 91 1009.7
20260506210001 6 240 1.6 4.8 0.00 1.91 1.27 90 1009.8
20260506205500 6 253 1.6 8.0 0.00 1.91 1.27 90 1009.7
20260506205000 6 281 1.6 8.0 0.00 1.91 1.27 91 1009.6
20260506204502 6 267 0.0 3.2 0.00 1.91 1.27 91 1009.4
20260506204002 6 316 1.6 9.7 0.00 1.91 1.27 91 1009.4
20260506203500 6 284 1.6 11.3 0.00 1.91 1.27 91 1009.3
20260506203000 6 264 1.6 4.8 0.00 1.91 1.27 92 1009.2
20260506202501 6 243 1.6 4.8 0.00 1.91 1.27 92 1009.2
20260506201500 6 146 1.6 9.7 0.00 1.91 1.27 93 1009.0
20260506201000 6 242 1.6 4.8 0.00 1.91 1.27 93 1009.0
20260506200500 6 123 1.6 6.4 0.00 1.91 1.27 93 1009.0
20260506200000 6 205 1.6 6.4 0.03 1.91 1.27 93 1009.2
20260506195500 6 285 0.0 6.4 0.03 1.91 1.27 93 1009.1
20260506195000 6 252 0.0 1.6 0.03 1.91 1.27 93 1009.1
20260506194501 6 274 0.0 1.6 0.03 1.91 1.27 93 1009.1
20260506194000 6 298 0.0 3.2 0.03 1.91 1.27 93 1009.1
20260506193459 6 347 1.6 4.8 0.03 1.91 1.27 93 1009.1
20260506193000 6 245 1.6 9.7 0.03 1.91 1.27 93 1009.2
20260506192500 6 234 1.6 9.7 0.03 1.91 1.27 93 1009.1
20260506191959 6 302 0.0 6.4 0.03 1.91 1.27 93 1009.0
20260506191500 6 237 1.6 4.8 0.03 1.91 1.27 94 1008.9
20260506190959 6 193 1.6 6.4 0.03 1.91 1.27 93 1008.8
20260506190500 6 348 1.6 6.4 0.03 1.91 1.27 93 1008.7
20260506190001 6 248 0.0 6.4 0.00 2.21 1.24 94 1008.7
20260506185500 6 195 1.6 4.8 0.00 2.21 1.24 93 1008.7
20260506184959 6 224 1.6 4.8 0.00 2.21 1.24 93 1008.7
20260506184500 6 287 1.6 3.2 0.00 2.21 1.24 93 1008.8
20260506183500 6 261 1.6 6.4 0.00 2.21 1.24 93 1008.7
20260506183000 6 11 0.0 3.2 0.00 2.21 1.24 93 1008.6
20260506182500 6 45 0.0 6.4 0.00 2.21 1.24 93 1008.5
20260506182001 6 233 0.0 4.8 0.03 2.21 1.24 93 1008.4
20260506181500 6 259 0.0 3.2 0.03 2.21 1.24 93 1008.3
20260506181001 6 27 0.0 4.8 0.03 2.21 1.24 93 1008.2
20260506180500 6 27 0.0 4.8 0.03 2.21 1.24 94 1008.2
20260506180000 6 82 0.0 4.8 0.03 2.54 1.24 94 1008.1
20260506175501 6 189 0.0 6.4 0.03 2.54 1.24 94 1008.0
20260506174959 6 266 0.0 6.4 0.03 2.54 1.24 94 1008.0
20260506174459 6 82 0.0 1.6 0.03 2.54 1.24 94 1007.8
20260506174000 6 228 0.0 4.8 0.03 2.54 1.24 94 1007.8
20260506173501 6 227 0.0 4.8 0.03 2.54 1.24 94 1007.9
20260506173000 6 254 0.0 3.2 0.03 2.54 1.24 94 1007.9
20260506172500 6 239 0.0 3.2 0.05 2.54 1.24 94 1007.9
20260506172001 6 269 0.0 4.8 0.03 2.51 1.22 94 1007.8
20260506171500 6 264 0.0 4.8 0.03 2.51 1.22 94 1007.7
20260506170501 6 58 0.0 3.2 0.03 2.51 1.22 94 1007.7
20260506170000 6 58 0.0 3.2 0.05 2.51 1.22 94 1007.7
20260506164500 6 231 0.0 3.2 0.10 2.51 1.22 94 1007.8
20260506163459 6 65 0.0 1.6 0.13 2.51 1.22 94 1007.9
20260506162959 6 227 0.0 0.0 0.13 2.51 1.22 94 1007.8
20260506162500 6 227 0.0 0.0 0.10 2.49 1.19 94 1007.8
20260506162001 6 243 0.0 0.0 0.13 2.49 1.19 94 1007.8
20260506161500 6 240 0.0 0.0 0.13 2.49 1.19 94 1007.9
20260506161001 6 240 0.0 0.0 0.13 2.49 1.19 94 1008.0
20260506160500 6 239 0.0 0.0 0.13 2.49 1.19 94 1008.0
20260506160001 6 239 0.0 1.6 0.10 2.46 1.17 94 1008.1
20260506155500 6 236 0.0 3.2 0.10 2.46 1.17 94 1008.1
20260506155000 6 65 0.0 3.2 0.08 2.44 1.14 94 1008.1
20260506154459 6 92 0.0 0.0 0.08 2.41 1.12 94 1008.1
20260506154000 6 306 0.0 0.0 0.08 2.41 1.12 94 1008.1
20260506153500 6 337 0.0 0.0 0.05 2.39 1.09 94 1008.2
20260506152459 6 75 0.0 0.0 0.08 2.39 1.09 94 1008.2
20260506152001 6 248 0.0 3.2 0.05 2.36 1.07 94 1008.1
20260506151502 6 50 0.0 3.2 0.08 2.36 1.07 94 1007.8
20260506151000 6 72 0.0 1.6 0.08 2.36 1.07 94 1007.9
20260506150459 6 307 0.0 1.6 0.08 2.36 1.07 94 1008.0
20260506145459 6 63 0.0 0.0 0.10 2.36 1.07 94 1007.5
20260506145000 6 62 0.0 0.0 0.10 2.36 1.07 94 1007.6
20260506144500 6 62 0.0 3.2 0.08 2.34 1.04 94 1007.6
20260506144001 6 68 1.6 3.2 0.08 2.34 1.04 94 1007.4
20260506143501 6 35 1.6 3.2 0.10 2.34 1.04 94 1007.4
20260506143002 6 75 0.0 3.2 0.13 2.34 1.04 94 1007.6
20260506142501 6 62 0.0 1.6 0.10 2.31 1.02 94 1007.5
20260506141959 6 62 1.6 3.2 0.13 2.31 1.02 94 1007.7
20260506141501 5 84 1.6 3.2 0.10 2.29 0.99 94 1007.6
20260506141001 5 53 0.0 3.2 0.13 2.29 0.99 94 1007.6
20260506140500 5 13 0.0 3.2 0.15 2.29 0.99 94 1007.8
20260506140002 5 63 1.6 4.8 0.18 2.29 0.99 94 1007.8
20260506135502 5 76 1.6 3.2 0.20 2.26 0.97 94 1007.8
20260506135000 5 59 1.6 3.2 0.23 2.26 0.97 94 1007.9
20260506134500 5 71 1.6 3.2 0.25 2.26 0.97 94 1007.9
20260506134001 5 46 1.6 3.2 0.28 2.26 0.97 94 1008.0
20260506133502 5 100 1.6 6.4 0.28 2.24 0.94 94 1008.0
20260506133002 5 55 1.6 6.4 0.25 2.21 0.91 94 1007.9
20260506132501 5 56 1.6 3.2 0.28 2.21 0.91 94 1008.1
20260506132002 5 56 1.6 3.2 0.28 2.18 0.89 94 1007.9
20260506131501 5 51 0.0 3.2 0.28 2.18 0.89 94 1007.9
20260506130959 5 57 0.0 3.2 0.28 2.16 0.86 94 1008.0
20260506130500 5 63 0.0 3.2 0.28 2.13 0.84 94 1008.0
20260506130003 5 68 0.0 1.6 0.23 2.08 0.79 94 1008.0
20260506125501 5 64 0.0 1.6 0.23 2.06 0.76 94 1008.0
20260506125001 5 65 1.6 4.8 0.20 2.03 0.74 94 1008.0
20260506124459 5 63 0.0 3.2 0.18 2.01 0.71 94 1008.0
20260506124000 5 32 0.0 3.2 0.15 1.98 0.69 94 1008.1
20260506123501 5 65 0.0 3.2 0.13 1.96 0.66 94 1007.9
20260506122501 5 72 0.0 1.6 0.13 1.93 0.64 94 1007.8
20260506122000 5 88 1.6 3.2 0.10 1.91 0.61 94 1007.8
20260506121500 5 53 1.6 4.8 0.13 1.91 0.61 94 1007.7
20260506121000 5 57 1.6 4.8 0.10 1.88 0.58 94 1007.6
20260506120501 5 70 1.6 4.8 0.10 1.85 0.56 94 1007.8
20260506120001 5 61 1.6 4.8 0.13 1.85 0.56 94 1007.8
20260506115459 5 44 1.6 4.8 0.15 1.83 0.53 94 1007.8
20260506115001 6 49 0.0 4.8 0.15 1.83 0.53 94 1007.7
20260506114501 6 45 0.0 3.2 0.18 1.83 0.53 94 1007.9
20260506114000 6 35 1.6 4.8 0.18 1.83 0.53 94 1008.0
20260506113001 6 66 0.0 4.8 0.18 1.80 0.51 94 1007.9
20260506112459 6 56 0.0 3.2 0.18 1.80 0.51 94 1008.1
20260506112000 6 69 0.0 3.2 0.20 1.80 0.51 93 1008.1
20260506111500 6 68 0.0 0.0 0.18 1.78 0.48 93 1008.2
20260506110959 6 70 0.0 0.0 0.18 1.78 0.48 94 1008.4
20260506110459 6 70 0.0 1.6 0.15 1.75 0.46 93 1008.5
20260506105501 6 68 0.0 0.0 0.10 1.68 0.38 93 1008.4
20260506105000 6 44 1.6 4.8 0.10 1.68 0.38 93 1008.3
20260506104501 6 57 1.6 4.8 0.08 1.65 0.36 93 1008.1
20260506104000 6 32 1.6 3.2 0.10 1.65 0.36 93 1008.0
20260506103459 5 63 1.6 3.2 0.08 1.63 0.33 93 1008.0
20260506103000 5 79 3.2 3.2 0.10 1.63 0.33 93 1008.0
20260506102001 5 35 0.0 4.8 0.08 1.60 0.30 93 1008.0
20260506101501 6 70 0.0 0.0 0.10 1.60 0.30 93 1008.0
20260506101001 6 109 0.0 1.6 0.10 1.60 0.30 93 1007.9
20260506100500 6 105 0.0 4.8 0.10 1.60 0.30 93 1007.9
20260506100001 5 66 0.0 4.8 0.10 1.60 0.30 93 1007.9
20260506095500 6 93 1.6 4.8 0.10 1.57 0.28 93 1008.0
20260506094500 5 57 3.2 6.4 0.13 1.57 0.28 93 1008.0
20260506094001 6 63 1.6 6.4 0.10 1.55 0.25 93 1008.1
20260506093500 6 63 1.6 6.4 0.10 1.55 0.25 93 1008.3
20260506093000 6 57 1.6 6.4 0.10 1.52 0.23 93 1008.5
20260506092500 6 51 1.6 6.4 0.10 1.52 0.23 93 1008.5
20260506092000 6 55 1.6 4.8 0.13 1.52 0.23 93 1008.6
20260506091500 6 35 1.6 4.8 0.13 1.50 0.20 93 1008.7
20260506091000 6 35 1.6 4.8 0.13 1.50 0.20 93 1008.7
20260506090001 6 304 1.6 4.8 0.15 1.50 0.20 93 1008.7
20260506085501 6 68 1.6 4.8 0.15 1.50 0.18 93 1008.9
20260506085000 6 29 1.6 6.4 0.15 1.50 0.18 93 1008.8
20260506084501 6 41 1.6 6.4 0.15 1.47 0.15 92 1008.9
20260506084000 6 59 1.6 4.8 0.15 1.47 0.15 92 1008.6
20260506083500 6 98 1.6 4.8 0.13 1.45 0.13 92 1008.4
20260506082959 6 266 1.6 8.0 0.13 1.45 0.13 92 1008.9
20260506082500 6 93 3.2 8.0 0.13 1.45 0.13 92 1008.4
20260506082001 6 300 3.2 8.0 0.10 1.42 0.10 92 1008.8
20260506081500 6 52 3.2 8.0 0.08 1.40 0.08 91 1008.6
20260506081000 7 62 3.2 8.0 0.08 1.40 0.08 91 1008.8
20260506080459 7 51 3.2 9.7 0.05 1.37 0.05 92 1008.5
20260506073000 7 60 3.2 4.8 0.00 1.35 0.00 92 1008.2
20260506072001 7 51 3.2 4.8 0.00 1.35 0.00 92 1008.1
20260506071501 7 57 1.6 4.8 0.00 1.35 0.00 92 1008.1
20260506071000 7 72 1.6 4.8 0.00 1.35 0.00 92 1008.0
20260506070501 8 32 1.6 4.8 0.00 1.35 0.00 93 1008.3
20260506061958 7 106 0.0 0.0 0.00 1.35 0.00 92 1008.7
20260506061459 8 105 0.0 0.0 0.00 1.35 0.00 92 1008.9
20260506060959 8 110 0.0 0.0 0.00 1.35 0.00 92 1009.0
20260506060459 8 110 0.0 3.2 0.00 1.35 0.00 92 1009.0
20260506050458 8 87 0.0 3.2 0.00 1.35 0.00 92 1009.6
20260506045001 8 85 0.0 3.2 0.00 1.35 0.00 92 1010.0
20260506044001 8 86 0.0 3.2 0.03 1.35 0.00 92 1010.0
20260506043502 8 34 0.0 3.2 0.05 1.35 0.00 92 1010.0
20260506043002 8 111 0.0 3.2 0.08 1.35 0.00 92 1009.8
20260506042501 8 110 0.0 1.6 0.10 1.35 0.00 92 1010.1
20260506042003 8 110 0.0 3.2 0.13 1.35 0.00 92 1010.0
20260506041501 8 108 0.0 3.2 0.15 1.35 0.00 92 1009.7
20260506040502 8 101 0.0 3.2 0.15 1.35 0.00 92 1009.9
20260506035501 8 105 0.0 1.6 0.18 1.35 1.35 92 1009.9
20260506035002 8 105 0.0 1.6 0.18 1.35 1.35 92 1009.9
20260506034502 8 85 0.0 0.0 0.20 1.35 1.35 92 1010.1
20260506034002 8 84 0.0 0.0 0.20 1.32 1.32 92 1010.0
20260506033502 8 97 0.0 0.0 0.20 1.30 1.30 92 1010.5
20260506033003 8 96 0.0 0.0 0.18 1.27 1.27 92 1010.1
20260506032502 8 95 0.0 0.0 0.18 1.24 1.24 92 1009.9
20260506031503 8 97 0.0 1.6 0.18 1.19 1.19 92 1010.3
20260506031002 8 98 0.0 0.0 0.20 1.19 1.19 92 1010.2
20260506030502 8 58 0.0 0.0 0.23 1.19 1.19 91 1010.3
20260506030003 8 58 0.0 0.0 0.23 1.17 1.17 91 1010.0
20260506025502 8 58 0.0 0.0 0.23 1.17 1.17 91 1010.2
20260506025001 8 291 0.0 0.0 0.23 1.14 1.14 91 1010.4
20260506024002 8 291 0.0 0.0 0.25 1.12 1.12 91 1010.5
20260506023500 8 291 0.0 0.0 0.23 1.09 1.09 91 1010.3
20260506023002 8 231 0.0 0.0 0.23 1.09 1.09 90 1010.5
20260506022501 8 230 0.0 0.0 0.23 1.07 1.07 90 1010.6
20260506022002 8 244 0.0 0.0 0.20 1.04 1.04 90 1010.5
20260506021502 8 244 0.0 0.0 0.18 1.02 1.02 90 1010.5
20260506021002 8 244 0.0 1.6 0.15 0.99 0.99 90 1010.6
20260506020500 8 245 0.0 3.2 0.10 0.94 0.94 90 1010.8
20260506020001 8 212 0.0 3.2 0.13 0.94 0.94 90 1010.6
20260506015501 8 51 0.0 3.2 0.13 0.94 0.94 89 1010.1
20260506015001 8 50 0.0 3.2 0.10 0.91 0.91 89 1009.8
20260506014500 8 247 0.0 0.0 0.10 0.89 0.89 89 1009.9
20260506014001 8 247 0.0 0.0 0.08 0.86 0.86 88 1010.1
20260506013500 8 247 0.0 0.0 0.08 0.86 0.86 88 1010.1
20260506013000 8 247 0.0 0.0 0.08 0.86 0.86 88 1010.1
20260506012500 8 347 0.0 0.0 0.08 0.84 0.84 88 1010.2
20260506011501 8 347 0.0 0.0 0.10 0.84 0.84 87 1010.2
20260506011001 8 53 0.0 0.0 0.10 0.84 0.84 86 1010.2